UAL4P EHAM-EGLL

Flight info

Callsign UAL4P
Flight time N/A
Altitude 24000
Route IDRID L980 LOGAN
Aircraft B772/H-SDE2E3FGHIJ5LORVWXY/LB1D1

Departure

Time 2026-04-28 20:40
Airport Amsterdam Airport Schiphol (EHAM)

Arrival

Time N/A
Airport London Heathrow Airport (EGLL)
Time Latitude Longitude Altitude Speed Heading
2026-04-28 20:17 52.31155 4.75596 3 ft 0 kts 87°
2026-04-28 20:17 52.31155 4.75597 3 ft 0 kts 87°
2026-04-28 20:21 52.31154 4.75575 4 ft 4 kts 90°
2026-04-28 20:22 52.31153 4.75532 5 ft 4 kts 78°
2026-04-28 20:22 52.31148 4.75498 5 ft 4 kts 66°
2026-04-28 20:22 52.31134 4.75461 5 ft 4 kts 54°
2026-04-28 20:22 52.31124 4.75437 5 ft 0 kts 58°
2026-04-28 20:26 52.31125 4.75439 3 ft 1 kts 58°
2026-04-28 20:27 52.31145 4.75461 3 ft 7 kts 17°
2026-04-28 20:27 52.31215 4.75460 3 ft 11 kts 358°
2026-04-28 20:27 52.31294 4.75453 3 ft 11 kts 357°
2026-04-28 20:27 52.31375 4.75446 4 ft 11 kts 357°
2026-04-28 20:28 52.31420 4.75358 3 ft 12 kts 276°
2026-04-28 20:28 52.31418 4.75227 3 ft 12 kts 267°
2026-04-28 20:28 52.31414 4.75096 3 ft 12 kts 267°
2026-04-28 20:28 52.31410 4.74966 4 ft 12 kts 267°
2026-04-28 20:29 52.31406 4.74834 3 ft 12 kts 267°
2026-04-28 20:29 52.31414 4.74713 4 ft 11 kts 304°
2026-04-28 20:29 52.31472 4.74635 4 ft 11 kts 303°
2026-04-28 20:29 52.31480 4.74512 4 ft 11 kts 269°
2026-04-28 20:30 52.31476 4.74385 4 ft 11 kts 267°
2026-04-28 20:30 52.31524 4.74302 4 ft 11 kts 352°
2026-04-28 20:30 52.31602 4.74304 4 ft 11 kts
2026-04-28 20:30 52.31680 4.74309 4 ft 11 kts
2026-04-28 20:31 52.31758 4.74317 3 ft 11 kts
2026-04-28 20:31 52.31836 4.74325 3 ft 11 kts
2026-04-28 20:31 52.31914 4.74332 3 ft 11 kts
2026-04-28 20:31 52.31990 4.74335 3 ft 11 kts 351°
2026-04-28 20:32 52.32028 4.74236 3 ft 11 kts 276°
2026-04-28 20:32 52.32034 4.74108 3 ft 11 kts 274°
2026-04-28 20:32 52.32039 4.73979 2 ft 12 kts 273°
2026-04-28 20:32 52.32043 4.73844 4 ft 12 kts 273°
2026-04-28 20:33 52.32049 4.73671 4 ft 20 kts 273°
2026-04-28 20:33 52.32056 4.73475 4 ft 16 kts 279°
2026-04-28 20:33 52.32111 4.73326 4 ft 16 kts 317°
2026-04-28 20:33 52.32193 4.73208 4 ft 16 kts 319°
2026-04-28 20:34 52.32276 4.73092 4 ft 16 kts 319°
2026-04-28 20:34 52.32360 4.72974 4 ft 16 kts 319°
2026-04-28 20:34 52.32451 4.72847 4 ft 18 kts 319°
2026-04-28 20:34 52.32548 4.72708 4 ft 19 kts 319°
2026-04-28 20:35 52.32647 4.72569 4 ft 19 kts 320°
2026-04-28 20:35 52.32737 4.72413 4 ft 19 kts 311°
2026-04-28 20:35 52.32824 4.72254 4 ft 19 kts 312°
2026-04-28 20:35 52.32909 4.72092 4 ft 19 kts 310°
2026-04-28 20:36 52.32996 4.71932 4 ft 19 kts 312°
2026-04-28 20:36 52.33083 4.71775 4 ft 18 kts 312°
2026-04-28 20:36 52.33145 4.71626 4 ft 15 kts 284°
2026-04-28 20:36 52.33109 4.71471 4 ft 15 kts 225°
2026-04-28 20:37 52.33057 4.71393 4 ft 15 kts 222°
2026-04-28 20:37 52.32978 4.71276 3 ft 15 kts 220°
2026-04-28 20:37 52.32902 4.71171 3 ft 14 kts 220°
2026-04-28 20:37 52.32863 4.71050 3 ft 12 kts 263°
2026-04-28 20:38 52.32878 4.70921 2 ft 12 kts 309°
2026-04-28 20:38 52.32951 4.70900 1 ft 1 kts
2026-04-28 20:39 52.32957 4.70900 1 ft 8 kts
2026-04-28 20:39 52.33216 4.70924 0 ft 78 kts
2026-04-28 20:40 52.34035 4.70995 24 ft 152 kts
2026-04-28 20:40 52.35142 4.71059 676 ft 162 kts
2026-04-28 20:40 52.36240 4.71139 1340 ft 159 kts 13°
2026-04-28 20:40 52.37339 4.71259 2139 ft 171 kts 15°
2026-04-28 20:41 52.38607 4.71413 2418 ft 207 kts 12°
2026-04-28 20:41 52.40128 4.71567 2894 ft 228 kts 11°
2026-04-28 20:41 52.41757 4.71710 3466 ft 245 kts
2026-04-28 20:41 52.43500 4.71128 3897 ft 271 kts 333°
2026-04-28 20:42 52.44809 4.68946 4765 ft 274 kts 309°
2026-04-28 20:42 52.46006 4.66516 5420 ft 276 kts 313°
2026-04-28 20:42 52.46871 4.63651 6033 ft 290 kts 281°
2026-04-28 20:42 52.46888 4.60347 6822 ft 291 kts 268°
2026-04-28 20:43 52.46794 4.57004 7556 ft 292 kts 266°
2026-04-28 20:43 52.46238 4.53817 8133 ft 299 kts 236°
2026-04-28 20:43 52.44791 4.51424 8895 ft 293 kts 212°
2026-04-28 20:43 52.43231 4.49235 9378 ft 303 kts 231°